• In Hungary
  • List of Countries
  • For 7 days
  • Water Temperature
  • Satellite Maps
  • Weather Map
  • News
  • Weather Widgets
  • user-avatar
    Login

    Hourly Weather Mahovka

    Today, 22 September, Saturday

    Time Temperature Precipitation Wind Pressure Humidity
    00:00 +9°C° 0 mm 2 mps 747 mmHg 79%
    01:00 +8°C° 0 mm 2 mps 747 mmHg 81%
    02:00 +8°C° 0 mm 2 mps 747 mmHg 83%
    03:00 +8°C° 0 mm 2 mps 747 mmHg 84%
    04:00 +8°C° 0 mm 1 mps 748 mmHg 83%
    05:00 +8°C° 0 mm 1 mps 748 mmHg 83%
    06:00 +8°C° 0 mm 1 mps 748 mmHg 83%
    07:00 +8°C° 0 mm 1 mps 749 mmHg 84%
    08:00 +10°C° 0 mm 1 mps 749 mmHg 76%
    09:00 +13°C° 0 mm 1 mps 749 mmHg 68%
    10:00 +15°C° 0 mm 2 mps 749 mmHg 59%
    11:00 +16°C° 0 mm 2 mps 749 mmHg 56%
    12:00 +18°C° 0 mm 2 mps 749 mmHg 52%
    13:00 +19°C° 0 mm 2 mps 749 mmHg 48%
    14:00 +20°C° 0 mm 2 mps 749 mmHg 49%
    15:00 +20°C° 0 mm 2 mps 749 mmHg 51%
    16:00 +21°C° 0 mm 3 mps 749 mmHg 52%
    17:00 +19°C° 0 mm 2 mps 749 mmHg 59%
    18:00 +18°C° 0 mm 2 mps 749 mmHg 66%
    19:00 +18°C° 0 mm 1 mps 749 mmHg 73%
    20:00 +18°C° 0 mm 1 mps 749 mmHg 76%
    21:00 +16°C° 0 mm 1 mps 749 mmHg 78%
    22:00 +16°C° 0 mm 1 mps 749 mmHg 80%
    23:00 +16°C° 0 mm 1 mps 749 mmHg 82%

    Tomorrow, 23 September, Sunday

    Time Temperature Precipitation Wind Pressure Humidity
    00:00 +16°C° 0 mm 2 mps 748 mmHg 83%
    01:00 +16°C° 0 mm 2 mps 748 mmHg 85%
    02:00 +15°C° 0 mm 2 mps 749 mmHg 86%
    03:00 +15°C° 0 mm 2 mps 749 mmHg 88%
    04:00 +15°C° 0 mm 2 mps 749 mmHg 90%
    05:00 +15°C° 0 mm 2 mps 749 mmHg 91%
    06:00 +14°C° 0 mm 2 mps 749 mmHg 92%
    07:00 +14°C° 0 mm 2 mps 749 mmHg 93%
    08:00 +16°C° 0 mm 2 mps 749 mmHg 85%
    09:00 +18°C° 0 mm 2 mps 749 mmHg 77%
    10:00 +20°C° 0 mm 2 mps 749 mmHg 69%
    11:00 +21°C° 0 mm 2 mps 749 mmHg 64%
    12:00 +23°C° 0 mm 2 mps 748 mmHg 60%
    13:00 +24°C° 0 mm 2 mps 748 mmHg 55%
    14:00 +25°C° 0 mm 2 mps 748 mmHg 53%
    15:00 +25°C° 0 mm 2 mps 748 mmHg 52%
    16:00 +25°C° 0 mm 2 mps 747 mmHg 50%
    17:00 +24°C° 0 mm 2 mps 747 mmHg 55%
    18:00 +21°C° 0 mm 2 mps 747 mmHg 59%
    19:00 +20°C° 0 mm 2 mps 747 mmHg 63%
    20:00 +19°C° 0 mm 2 mps 747 mmHg 64%
    21:00 +18°C° 0 mm 2 mps 746 mmHg 66%
    22:00 +18°C° 0 mm 2 mps 746 mmHg 67%
    23:00 +17°C° 0 mm 3 mps 746 mmHg 64%

    Day after tomorrow, 24 September, Monday

    Time Temperature Precipitation Wind Pressure Humidity
    00:00 +16°C° 0 mm 3 mps 746 mmHg 62%
    01:00 +16°C° 0 mm 3 mps 746 mmHg 59%
    02:00 +14°C° 0 mm 3 mps 746 mmHg 56%
    03:00 +14°C° 0 mm 3 mps 746 mmHg 53%
    04:00 +13°C° 0 mm 3 mps 745 mmHg 50%
    05:00 +13°C° 0 mm 3 mps 745 mmHg 50%
    06:00 +13°C° 0 mm 3 mps 745 mmHg 50%
    07:00 +13°C° 0 mm 3 mps 745 mmHg 50%
    08:00 +15°C° 0 mm 4 mps 745 mmHg 45%
    09:00 +17°C° 0 mm 5 mps 744 mmHg 41%
    10:00 +20°C° 0 mm 6 mps 744 mmHg 37%
    11:00 +21°C° 0 mm 7 mps 744 mmHg 35%
    12:00 +22°C° 0 mm 7 mps 744 mmHg 33%
    13:00 +23°C° 0 mm 8 mps 744 mmHg 31%
    14:00 +23°C° 0 mm 7 mps 743 mmHg 33%
    15:00 +23°C° 0 mm 6 mps 743 mmHg 35%
    16:00 +23°C° 0 mm 5 mps 743 mmHg 36%
    17:00 +21°C° 0 mm 4 mps 743 mmHg 41%
    18:00 +20°C° 0 mm 3 mps 743 mmHg 46%
    19:00 +19°C° 0 mm 2 mps 743 mmHg 50%
    20:00 +18°C° 0 mm 2 mps 743 mmHg 54%
    21:00 +17°C° 0 mm 2 mps 743 mmHg 57%
    22:00 +18°C° 0 mm 1 mps 743 mmHg 60%
    23:00 +16°C° 0 mm 1 mps 743 mmHg 65%

    25 September, Tuesday

    Time Temperature Precipitation Wind Pressure Humidity
    00:00 +15°C° 0 mm 1 mps 742 mmHg 71%
    01:00 +14°C° 0 mm 1 mps 742 mmHg 76%
    02:00 +14°C° 0 mm 1 mps 742 mmHg 80%
    03:00 +13°C° 0 mm 2 mps 742 mmHg 83%
    04:00 +13°C° 0 mm 2 mps 742 mmHg 87%
    05:00 +12°C° 0 mm 2 mps 742 mmHg 89%
    06:00 +12°C° 0 mm 2 mps 742 mmHg 91%
    07:00 +12°C° 0 mm 2 mps 742 mmHg 93%
    08:00 +12°C° 0 mm 3 mps 742 mmHg 86%
    09:00 +13°C° 0 mm 3 mps 742 mmHg 79%
    10:00 +15°C° 0 mm 4 mps 742 mmHg 72%
    11:00 +16°C° 0 mm 5 mps 742 mmHg 64%
    12:00 +17°C° 0 mm 5 mps 742 mmHg 57%
    13:00 +19°C° 0 mm 6 mps 742 mmHg 49%
    14:00 +19°C° 0 mm 5 mps 742 mmHg 48%
    15:00 +17°C° 0 mm 5 mps 742 mmHg 48%
    16:00 +18°C° 0 mm 4 mps 742 mmHg 47%
    17:00 +17°C° 0 mm 4 mps 742 mmHg 48%
    18:00 +16°C° 0 mm 3 mps 742 mmHg 50%
    19:00 +16°C° 0 mm 3 mps 742 mmHg 52%
    20:00 +16°C° 0 mm 3 mps 741 mmHg 50%
    21:00 +15°C° 0 mm 4 mps 741 mmHg 48%
    22:00 +15°C° 0 mm 5 mps 741 mmHg 46%
    23:00 +15°C° 0 mm 4 mps 741 mmHg 48%

    26 September, Wednesday

    Time Temperature Precipitation Wind Pressure Humidity
    00:00 +15°C° 0 mm 4 mps 741 mmHg 50%
    01:00 +15°C° 0 mm 4 mps 741 mmHg 52%
    02:00 +14°C° 0.5 mm 4 mps 741 mmHg 61%
    03:00 +13°C° 0.5 mm 4 mps 741 mmHg 71%
    04:00 +12°C° 0.5 mm 4 mps 742 mmHg 80%
    05:00 +11°C° 0.2 mm 4 mps 742 mmHg 79%
    06:00 +11°C° 0.2 mm 4 mps 742 mmHg 78%
    07:00 +10°C° 0.2 mm 4 mps 743 mmHg 77%
    08:00 +10°C° 0 mm 5 mps 743 mmHg 72%
    09:00 +10°C° 0 mm 6 mps 744 mmHg 67%
    10:00 +11°C° 0 mm 7 mps 744 mmHg 61%
    11:00 +11°C° 0 mm 7 mps 745 mmHg 58%
    12:00 +12°C° 0 mm 7 mps 745 mmHg 54%
    13:00 +12°C° 0 mm 7 mps 745 mmHg 51%
    14:00 +13°C° 0 mm 6 mps 745 mmHg 50%
    15:00 +13°C° 0 mm 6 mps 746 mmHg 50%
    16:00 +13°C° 0 mm 5 mps 746 mmHg 50%
    17:00 +12°C° 0 mm 5 mps 746 mmHg 52%
    18:00 +12°C° 0 mm 4 mps 746 mmHg 55%
    19:00 +11°C° 0 mm 3 mps 747 mmHg 57%
    20:00 +10°C° 0 mm 3 mps 747 mmHg 59%
    21:00 +10°C° 0 mm 3 mps 747 mmHg 62%
    22:00 +9°C° 0 mm 3 mps 747 mmHg 65%
    23:00 +8°C° 0 mm 3 mps 747 mmHg 68%

    27 September, Thursday

    Time Temperature Precipitation Wind Pressure Humidity
    00:00 +7°C° 0 mm 3 mps 747 mmHg 71%
    01:00 +7°C° 0 mm 3 mps 747 mmHg 75%
    02:00 +5°C° 0 mm 3 mps 747 mmHg 76%
    03:00 +5°C° 0 mm 3 mps 747 mmHg 77%
    04:00 +4°C° 0 mm 3 mps 747 mmHg 79%
    05:00 +4°C° 0 mm 4 mps 747 mmHg 77%
    06:00 +4°C° 0 mm 4 mps 747 mmHg 76%
    07:00 +3°C° 0 mm 5 mps 747 mmHg 74%
    08:00 +5°C° 0 mm 6 mps 747 mmHg 66%
    09:00 +6°C° 0 mm 7 mps 746 mmHg 57%
    10:00 +9°C° 0 mm 7 mps 746 mmHg 49%
    11:00 +10°C° 0 mm 8 mps 746 mmHg 47%
    12:00 +11°C° 0 mm 8 mps 746 mmHg 46%
    13:00 +12°C° 0 mm 8 mps 745 mmHg 44%
    14:00 +13°C° 0 mm 8 mps 745 mmHg 45%
    15:00 +13°C° 0 mm 8 mps 745 mmHg 45%
    16:00 +13°C° 0 mm 8 mps 744 mmHg 45%
    17:00 +12°C° 0 mm 7 mps 744 mmHg 48%
    18:00 +11°C° 0 mm 6 mps 744 mmHg 51%
    19:00 +10°C° 0 mm 6 mps 744 mmHg 55%
    20:00 +10°C° 0.1 mm 6 mps 744 mmHg 56%
    21:00 +9°C° 0.1 mm 6 mps 744 mmHg 58%
    22:00 +9°C° 0.1 mm 6 mps 744 mmHg 59%
    23:00 +9°C° 0 mm 7 mps 743 mmHg 57%
    Show more